This is the latest recevied weather packets stored in our database for station/object N3WGC-14. If no packets are shown the sender has not sent any weather packets the latest 10 day(s).
| Time | Temp. | Humidity | Pressure | Rain* | Wind** | Luminosity | Snow |
|---|---|---|---|---|---|---|---|
| 1777913804 | 21.11° C | 48% | 1013.3 hPa | 0 mm | - | - | - |
| 1777913504 | 20.56° C | 49% | 1013.4 hPa | 0 mm | - | - | - |
| 1777913204 | 20.56° C | 46% | 1013.5 hPa | 0 mm | - | - | - |
| 1777912904 | 20.56° C | 48% | 1013.6 hPa | 0 mm | - | - | - |
| 1777912604 | 20° C | 50% | 1013.6 hPa | 0 mm | - | - | - |
| 1777912304 | 20° C | 51% | 1013.7 hPa | 0 mm | - | - | - |
| 1777912004 | 20° C | 52% | 1013.8 hPa | 0 mm | - | - | - |
| 1777911703 | 20° C | 46% | 1013.8 hPa | 0 mm | - | - | - |
| 1777911403 | 20° C | 47% | 1013.9 hPa | 0 mm | - | - | - |
| 1777911103 | 19.44° C | 50% | 1013.9 hPa | 0 mm | - | - | - |
| 1777910803 | 19.44° C | 49% | 1014 hPa | 0 mm | - | - | - |
| 1777910503 | 18.89° C | 49% | 1014 hPa | 0 mm | - | - | - |
| 1777910203 | 19.44° C | 48% | 1014 hPa | 0 mm | - | - | - |
| 1777909903 | 20° C | 47% | 1014.1 hPa | 0 mm | - | - | - |
| 1777909602 | 19.44° C | 50% | 1014.1 hPa | 0 mm | - | - | - |
| 1777909302 | 19.44° C | 55% | 1014 hPa | 0 mm | - | - | - |
| 1777909002 | 18.89° C | 55% | 1014.1 hPa | 0 mm | - | - | - |
| 1777908702 | 18.33° C | 55% | 1014.2 hPa | 0 mm | - | - | - |
| 1777908402 | 18.33° C | 55% | 1014.3 hPa | 0 mm | - | - | - |
| 1777908102 | 17.78° C | 59% | 1014.4 hPa | 0 mm | - | - | - |
| 1777907802 | 18.33° C | 60% | 1014.4 hPa | 0 mm | - | - | - |
| 1777907501 | 17.78° C | 61% | 1014.4 hPa | 0 mm | - | - | - |
| 1777907201 | 17.22° C | 59% | 1014.5 hPa | 0 mm | - | - | - |
| 1777906901 | 17.78° C | 59% | 1014.5 hPa | 0 mm | - | - | - |
| 1777906601 | 17.22° C | 60% | 1014.6 hPa | 0 mm | - | - | - |
* Rain latest hour (hover to see other rain measurements)
** Current wind speed in m/s (hover to see current wind gust speed)